Volver al catálogo

KSAT3U

ActivoCienciaSSO
NORAD 56747·PAYLOAD·🇰🇷 South Korea
Este nombre de satélite aún no ha sido confirmado por fuentes oficiales.

Lanzado May 25, 2023 desde Naro Space Center

Loading…

Próximos Pases (próximas 24 horas)

TLE

ActualizadoSource: Space-Track

Época: Sep 14, 2026, 20:46 UTC

1 56747U 23072E   26257.86541986  .00030053  00000-0  49844-3 0  9995
2 56747  97.4948 110.7295 0003406  43.2769 316.8751 15.52085122184275

Sigue KSAT3U en tiempo real con AllMySat

Download on the App Store